FW8372 Weather Reports


time (UTC)temp
C
wind
direction
speed
KPH
gust
KPH
rain 1hr
cm
rain 24hr
cm
rain mn
cm
humidity
%
barometer
mb
20260504001532 22 311 11.3 20.9 0.00 0.00 0.00 39 1010.2
20260504001028 22 279 4.8 14.5 0.00 0.00 0.00 39 1010.1
20260504000525 23 269 12.9 17.7 0.00 0.00 0.00 39 1009.9
20260504000023 23 271 8.0 11.3 0.00 0.00 0.00 39 1010.1
20260503235521 22 202 4.8 16.1 0.00 0.00 0.00 42 1010.2
20260503235017 22 256 4.8 14.5 0.00 0.00 0.00 42 1010.4
20260503234515 22 220 6.4 12.9 0.00 0.00 0.00 42 1010.3
20260503234014 22 252 11.3 16.1 0.00 0.00 0.00 43 1010.5
20260503233509 22 249 4.8 17.7 0.00 0.00 0.00 45 1010.5
20260503233005 22 271 14.5 16.1 0.00 0.00 0.00 44 1010.5
20260503232503 22 270 9.7 12.9 0.00 0.00 0.00 44 1010.7
20260503232000 22 263 9.7 20.9 0.00 0.00 0.00 45 1010.6
20260503231458 22 241 8.0 12.9 0.00 0.00 0.00 45 1010.7
20260503230954 22 252 8.0 17.7 0.00 0.00 0.00 45 1010.9
20260503230450 22 298 9.7 20.9 0.00 0.00 0.00 44 1010.8
20260503225948 22 264 12.9 20.9 0.00 0.00 0.00 44 1010.8
20260503225445 22 278 14.5 17.7 0.00 0.00 0.00 45 1011.2
20260503224940 22 252 11.3 16.1 0.00 0.00 0.00 45 1011.1
20260503224437 22 282 8.0 12.9 0.00 0.00 0.00 44 1011.3
20260503223935 22 239 9.7 22.5 0.00 0.00 0.00 44 1011.5
20260503223433 22 239 8.0 16.1 0.00 0.00 0.00 44 1011.4
20260503222928 22 240 8.0 17.7 0.00 0.00 0.00 44 1011.3
20260503222427 22 311 11.3 17.7 0.00 0.00 0.00 43 1011.5
20260503221925 22 303 6.4 14.5 0.00 0.00 0.00 43 1011.7
20260503221423 22 289 11.3 17.7 0.00 0.00 0.00 44 1011.6
20260503220919 22 283 8.0 17.7 0.00 0.00 0.00 44 1011.8
20260503220416 22 286 9.7 20.9 0.00 0.00 0.00 44 1011.8
20260503215913 22 320 4.8 16.1 0.00 0.00 0.00 42 1011.8
20260503215410 22 252 12.9 16.1 0.00 0.00 0.00 42 1011.9
20260503214908 22 271 14.5 17.7 0.00 0.00 0.00 43 1012.1
20260503214405 21 241 8.0 17.7 0.00 0.00 0.00 45 1011.8
20260503213902 22 257 6.4 14.5 0.00 0.00 0.00 48 1011.7
20260503213400 22 233 4.8 14.5 0.00 0.00 0.00 49 1011.8
20260503212856 21 324 9.7 16.1 0.00 0.00 0.00 50 1012.1
20260503212354 21 215 8.0 17.7 0.00 0.00 0.00 52 1012.1
20260503211851 20 300 9.7 14.5 0.00 0.00 0.00 52 1012.0
20260503211348 20 282 11.3 16.1 0.00 0.00 0.00 52 1012.1
20260503210843 20 239 12.9 20.9 0.00 0.00 0.00 52 1012.2
20260503210341 20 253 6.4 17.7 0.00 0.00 0.00 52 1012.2
20260503205835 21 238 8.0 16.1 0.00 0.00 0.00 51 1012.2
20260503205332 21 301 9.7 11.3 0.00 0.00 0.00 50 1012.2
20260503204829 21 309 6.4 11.3 0.00 0.00 0.00 49 1012.2
20260503204326 21 319 9.7 17.7 0.00 0.00 0.00 51 1012.3
20260503203823 21 241 6.4 12.9 0.00 0.00 0.00 49 1012.6
20260503203321 21 263 4.8 12.9 0.00 0.00 0.00 49 1012.4
20260503202817 21 238 9.7 17.7 0.00 0.00 0.00 51 1012.6
20260503202316 21 245 3.2 12.9 0.00 0.00 0.00 50 1012.6
20260503201814 21 262 3.2 12.9 0.00 0.00 0.00 48 1012.5
20260503201310 21 234 9.7 12.9 0.00 0.00 0.00 51 1012.8
20260503200808 21 236 8.0 12.9 0.00 0.00 0.00 48 1012.8
20260503200303 21 326 11.3 14.5 0.00 0.00 0.00 48 1012.9
20260503195801 21 359 4.8 16.1 0.00 0.00 0.00 49 1013.1
20260503195257 21 296 11.3 16.1 0.00 0.00 0.00 49 1012.7
20260503194755 21 265 6.4 16.1 0.00 0.00 0.00 52 1013.2
20260503194250 20 270 4.8 11.3 0.00 0.00 0.00 55 1013.2
20260503193747 20 276 8.0 12.9 0.00 0.00 0.00 54 1013.2
20260503193243 20 281 11.3 16.1 0.00 0.00 0.00 54 1013.3
20260503192739 20 347 4.8 12.9 0.00 0.00 0.00 56 1013.3
20260503192234 20 278 4.8 16.1 0.00 0.00 0.00 56 1013.3
20260503191731 20 270 9.7 14.5 0.00 0.00 0.00 55 1013.3
20260503191228 20 256 4.8 14.5 0.00 0.00 0.00 56 1013.5
20260503190725 20 285 9.7 12.9 0.00 0.00 0.00 55 1013.5
20260503190222 20 261 4.8 9.7 0.00 0.00 0.00 56 1013.7
20260503185719 18 230 8.0 14.5 0.00 0.00 0.00 60 1013.4
20260503185214 19 233 6.4 14.5 0.00 0.00 0.00 60 1013.6
20260503184709 20 245 4.8 9.7 0.00 0.00 0.00 59 1013.7
20260503184206 18 263 6.4 11.3 0.00 0.00 0.00 60 1013.6
20260503183702 18 217 8.0 12.9 0.00 0.00 0.00 61 1014.0
20260503183200 18 301 9.7 14.5 0.00 0.00 0.00 63 1014.0
20260503182658 18 247 9.7 14.5 0.00 0.00 0.00 64 1014.0
20260503182156 18 247 4.8 9.7 0.00 0.00 0.00 64 1014.1
20260503181652 18 238 8.0 12.9 0.00 0.00 0.00 63 1013.8
20260503181149 18 245 8.0 12.9 0.00 0.00 0.00 63 1014.1
20260503180646 18 229 4.8 9.7 0.00 0.00 0.00 62 1013.9
20260503180144 18 277 6.4 11.3 0.00 0.00 0.00 62 1014.0
20260503175641 18 258 9.7 14.5 0.00 0.00 0.00 63 1013.8
20260503175138 17 276 8.0 14.5 0.00 0.00 0.00 64 1013.8
20260503174634 18 263 11.3 14.5 0.00 0.00 0.00 63 1014.1
20260503174132 17 255 9.7 12.9 0.00 0.00 0.00 63 1014.2
20260503173627 17 230 9.7 12.9 0.00 0.00 0.00 64 1014.1
20260503173123 18 190 3.2 11.3 0.00 0.00 0.00 63 1014.2
20260503172620 18 227 8.0 14.5 0.00 0.00 0.00 62 1014.0
20260503172118 18 228 6.4 12.9 0.00 0.00 0.00 62 1014.0
20260503171614 17 245 6.4 12.9 0.00 0.00 0.00 64 1014.1
20260503171111 17 213 12.9 17.7 0.00 0.00 0.00 64 1014.4
20260503170608 17 235 8.0 12.9 0.00 0.00 0.00 64 1014.2
20260503170104 17 233 8.0 14.5 0.00 0.00 0.00 65 1014.3
20260503151000 16 314 4.8 9.7 0.00 0.00 0.00 66 1014.3
20260503150457 16 205 3.2 9.7 0.00 0.00 0.00 67 1014.3
20260503131344 15 355 1.6 9.7 0.00 0.00 0.00 60 1014.0
20260503130841 15 228 8.0 11.3 0.00 0.00 0.00 60 1013.9
20260503130339 15 298 3.2 4.8 0.00 0.00 0.00 61 1014.0
20260503110732 14 337 1.6 3.2 0.00 0.00 0.00 65 1014.3
20260503110230 13 225 0.0 1.6 0.00 0.00 0.00 69 1014.4
20260503100155 15 190 1.6 3.2 0.00 0.00 0.00 66 1014.2
20260503090115 17 22 1.6 1.6 0.00 0.00 0.00 49 1014.2
20260503081550 16 22 1.6 3.2 0.00 0.00 0.00 51 1014.3
20260503081048 16 21 3.2 3.2 0.00 0.00 0.00 52 1014.2
20260503080544 16 40 1.6 3.2 0.00 0.00 0.00 55 1014.2
20260503072518 17 352 0.0 0.0 0.00 0.00 0.00 46 1014.2
20260503072015 18 352 0.0 1.6 0.00 0.00 0.00 45 1014.3
20260503071512 18 321 0.0 1.6 0.00 0.00 0.00 45 1014.2
20260503071008 18 328 0.0 1.6 0.00 0.00 0.00 45 1014.2
20260503070505 18 288 1.6 1.6 0.00 0.00 0.00 44 1014.1
20260503054929 18 17 3.2 4.8 0.00 0.00 0.00 43 1014.0
20260503054425 18 257 1.6 4.8 0.00 0.00 0.00 44 1013.9
20260503053923 18 220 3.2 9.7 0.00 0.00 0.00 44 1013.9
20260503053420 18 329 1.6 4.8 0.00 0.00 0.00 44 1014.2
20260503052916 18 350 0.0 4.8 0.00 0.00 0.00 44 1014.0
20260503052414 18 287 0.0 11.3 0.00 0.00 0.00 45 1014.3
20260503051910 19 334 1.6 12.9 0.00 0.00 0.00 45 1014.2
20260503051406 18 35 0.0 1.6 0.00 0.00 0.00 46 1014.1
20260503050904 18 316 1.6 4.8 0.00 0.00 0.00 46 1014.1
20260503050359 19 0 0.0 11.3 0.00 0.00 0.00 44 1014.1
20260503045857 19 309 3.2 8.0 0.00 0.00 0.00 44 1014.2
20260503045354 19 272 3.2 8.0 0.00 0.00 0.00 44 1014.0
20260503044851 20 353 1.6 11.3 0.00 0.00 0.00 45 1013.9
20260503044348 19 316 1.6 14.5 0.00 0.00 0.00 44 1013.9
20260503043845 20 3 1.6 4.8 0.00 0.00 0.00 44 1014.1
20260503043342 20 337 6.4 12.9 0.00 0.00 0.00 43 1013.8
20260503042838 20 331 3.2 11.3 0.00 0.00 0.00 43 1014.0
20260503042335 20 267 3.2 9.7 0.00 0.00 0.00 45 1013.9
20260503041831 19 289 4.8 9.7 0.00 0.00 0.00 45 1013.8
20260503041328 19 293 8.0 11.3 0.00 0.00 0.00 45 1013.6
20260503040826 19 314 9.7 11.3 0.00 0.00 0.00 45 1013.5
20260503040324 19 256 8.0 11.3 0.00 0.00 0.00 46 1013.3
20260503035820 19 344 6.4 11.3 0.00 0.00 0.00 47 1013.5
20260503035317 18 356 3.2 12.9 0.00 0.00 0.00 48 1013.4
20260503034814 18 265 6.4 16.1 0.00 0.00 0.00 48 1013.3
20260503034312 18 269 4.8 9.7 0.00 0.00 0.00 49 1013.4
20260503033809 18 309 3.2 8.0 0.00 0.00 0.00 50 1013.2
20260503033306 18 16 4.8 8.0 0.00 0.00 0.00 51 1013.0
20260503032804 18 275 3.2 9.7 0.00 0.00 0.00 52 1013.1
20260503032304 18 266 1.6 8.0 0.00 0.00 0.00 53 1013.0
20260503031759 18 218 3.2 3.2 0.00 0.00 0.00 55 1013.1
20260503031258 18 233 4.8 8.0 0.00 0.00 0.00 54 1013.2
20260503030753 18 289 6.4 8.0 0.00 0.00 0.00 53 1013.1
20260503030250 19 248 1.6 9.7 0.00 0.00 0.00 52 1012.9
20260503025747 19 280 8.0 11.3 0.00 0.00 0.00 52 1012.9
20260503025244 19 260 4.8 8.0 0.00 0.00 0.00 51 1012.7
20260503024741 19 272 6.4 12.9 0.00 0.00 0.00 51 1012.9
20260503024238 19 236 3.2 4.8 0.00 0.00 0.00 52 1012.9
20260503023735 20 257 6.4 12.9 0.00 0.00 0.00 52 1013.1
20260503023232 20 257 9.7 11.3 0.00 0.00 0.00 52 1013.0
20260503022728 20 253 8.0 9.7 0.00 0.00 0.00 52 1012.7
20260503022228 20 271 6.4 9.7 0.00 0.00 0.00 52 1012.9
20260503021725 20 285 4.8 11.3 0.00 0.00 0.00 53 1012.9
20260503021221 19 226 6.4 14.5 0.00 0.00 0.00 54 1013.0
20260503020719 20 292 8.0 14.5 0.00 0.00 0.00 54 1012.9
20260503020216 20 234 6.4 16.1 0.00 0.00 0.00 54 1012.8
20260503015713 20 253 8.0 11.3 0.00 0.00 0.00 53 1013.1
20260503015210 20 286 6.4 16.1 0.00 0.00 0.00 53 1012.9
20260503014705 20 259 3.2 12.9 0.00 0.00 0.00 53 1013.1
20260503014204 20 359 8.0 12.9 0.00 0.00 0.00 52 1013.2
20260503013701 20 235 4.8 9.7 0.00 0.00 0.00 52 1012.7
20260503013158 20 226 1.6 12.9 0.00 0.00 0.00 52 1013.1
20260503012655 20 214 6.4 12.9 0.00 0.00 0.00 52 1013.1
20260503012152 20 303 11.3 14.5 0.00 0.00 0.00 51 1013.3
20260503011648 20 266 4.8 12.9 0.00 0.00 0.00 51 1013.1
20260503011146 20 306 4.8 11.3 0.00 0.00 0.00 50 1013.0
20260503010642 20 228 6.4 12.9 0.00 0.00 0.00 50 1013.1
20260503010139 20 283 8.0 16.1 0.00 0.00 0.00 50 1013.3
20260503005636 20 292 9.7 16.1 0.00 0.00 0.00 49 1013.1
20260503005133 20 231 6.4 12.9 0.00 0.00 0.00 48 1013.3
20260503004630 20 244 8.0 14.5 0.00 0.00 0.00 48 1013.2
20260503004128 20 258 6.4 14.5 0.00 0.00 0.00 48 1013.2
20260503003625 20 294 11.3 16.1 0.00 0.00 0.00 50 1013.4
20260503003122 20 226 9.7 20.9 0.00 0.00 0.00 50 1013.2
20260503002619 20 272 9.7 12.9 0.00 0.00 0.00 51 1013.2
20260503002115 20 267 8.0 17.7 0.00 0.00 0.00 51 1013.3